Regional Weather Roundup
Issued by NWS Cleveland, OH

Home | Current Version | Previous Version | Text Only | Print | Product List | Glossary Off
Versions: 1 2 3 4 5 6 7 8 9 10 11 12 13 14 15 16 17 18 19 20 21 22 23 24 25 26 27 28 29 30 31 32 33 34 35 36 37 38 39 40 41 42 43 44 45 46 47 48 49 50

000
ASUS41 KCLE 252010
RWRCLE
OHIO REGIONAL WEATHER ROUNDUP
NATIONAL WEATHER SERVICE WILMINGTON, OH
400 PM EDT SUN JUN 25 2017

NOTE: "FAIR" INDICATES FEW OR NO CLOUDS BELOW 12,000 FEET WITH NO
SIGNIFICANT WEATHER AND/OR OBSTRUCTIONS TO VISIBILITY.

OHZ001>008-015>018-024>027-034-035-043-044-252100-
   NORTHWEST OHIO

CITY           SKY/WX    TMP DP  RH WIND       PRES   REMARKS
DEFIANCE       FAIR      69  44  40 W8G17     30.08S
FINDLAY        PTSUNNY   71  42  35 W20G25    30.07S
TOLEDO EXPRESS PTSUNNY   73  44  35 W17G24    30.05S
TOLEDO EXEC    PTSUNNY   71  45  39 W18G25    30.06S
LIMA           PTSUNNY   71  44  37 W18G30    30.10S
$$

OHZ009>014-019>023-028>033-038-089-252100-
   NORTHEAST OHIO

CITY           SKY/WX    TMP DP  RH WIND       PRES   REMARKS
CLE-HOPKINS    FAIR      73  47  39 W22G29    30.06R
CLE-LAKEFRONT  FAIR      70  52  52 W21       30.04R
CUY CO. ARPT   MOSUNNY   72  52  49 W17G29    30.05R
LORAIN-ELYRIA  FAIR      69  42  37 W21G26    30.06R
ASHTABULA      FAIR      69  49  48 W21G30    30.04R
AKRON-CANTON   FAIR      76  45  33 W17G25    30.04S
WOOSTER        FAIR      71  46  40 W20G28    30.07R
MANSFIELD      PTSUNNY   70  43  37 W16G28    30.08R
YOUNGSTOWN     PTSUNNY   74  42  31 W22G29    30.02R
$$

OHZ042-051>053-060>062-070>072-077>081-252100-
  SOUTHWEST OHIO

CITY           SKY/WX    TMP DP  RH WIND       PRES   REMARKS
CINC-COVINGTON FAIR      75  47  36 W12G25    30.12F
CINC-LUNKEN    FAIR      77  51  40 W18G31    30.11F
HAMILTON       FAIR      77  48  35 W13G26    30.12F
DAYTON         FAIR      72  45  37 W20G25    30.12S
WRIGHT-PAT AFB MOSUNNY   75  45  34 W17G24    30.10S
DAYTON GENERAL FAIR      75  43  31 W18G29    30.11S
WILMINGTON     FAIR      76  48  37 W26G35    30.10F
$$

OHZ036-037-039>041-045>050-054>059-063>069-073>076-082>088-252100-
  CENTRAL AND SOUTHEAST OHIO

CITY           SKY/WX    TMP DP  RH WIND       PRES   REMARKS
COLUMBUS       FAIR      76  47  35 W22G33    30.08S
OSU AIRPORT    FAIR      73  46  38 W22G35    30.09S
BOLTON FIELD   MOSUNNY   75  48  38 W17G25    30.09S
RICKENBACK AFB FAIR      76  48  36 W21G30    30.08S
NEWARK         FAIR      78  42  27 W24G31    30.07S
MARION         FAIR      71  42  35 W15G25    30.10R
LANCASTER      PTSUNNY   74  49  41 W16G28    30.09S
ZANESVILLE     PTSUNNY   76  47  35 W14G29    30.07S
NEW PHILLY     PTSUNNY   75  46  35 W13G21    30.06S
$$



USA.gov is the U.S. government's official web portal to all federal, state and local government web resources and services.